Satellite: FCAL
Catalog number: 29667
Epoch time:      08052.86677242
Element set:     772
Inclination:      051.6296 deg
RA of node:       213.9097 deg
Eccentricity:    0.0008046
Arg of perigee:   250.9607 deg
Mean anomaly:     109.0532 deg
Mean motion:   16.02425972 rev/day
Decay rate:     5.2508e-04 rev/day^2
Epoch rev:            6782
Checksum:              318

Satellite: FALCON
Catalog number: 30776
Epoch time:      08051.66148863
Element set:    0270
Inclination:      035.4323 deg
RA of node:       146.2077 deg
Eccentricity:    0.0001068
Arg of perigee:   025.2684 deg
Mean anomaly:     334.8084 deg
Mean motion:   15.02884480 rev/day
Decay rate:       3.68e-06 rev/day^2
Epoch rev:           05245
Checksum:              289

Satellite: MAST
Catalog number: 31126
Epoch time:      08051.72411634
Element set:     260
Inclination:      098.0529 deg
RA of node:       120.7846 deg
Eccentricity:    0.0094391
Arg of perigee:   336.6094 deg
Mean anomaly:     023.0800 deg
Mean motion:   14.53399784 rev/day
Decay rate:       -5.2e-07 rev/day^2
Epoch rev:            4495
Checksum:              287

Satellite: CAPE1
Catalog number: 31130
Epoch time:      08051.76335747
Element set:     240
Inclination:      098.0526 deg
RA of node:       120.1000 deg
Eccentricity:    0.0102492
Arg of perigee:   338.5779 deg
Mean anomaly:     021.1144 deg
Mean motion:   14.51932345 rev/day
Decay rate:        3.7e-07 rev/day^2
Epoch rev:            4468
Checksum:              257

/EX






More information about the Keps mailing list